CZ-4C DEB, 44618

Orbit data source: Space-Track

CZ-4C DEB, 44618 is space debris in LEO originally from a launch on Tue, 10 Apr 2018 UTC launched from the Taiyaun Space Center, China (TSC). Debris objects in space refer to the collection of defunct objects orbiting the Earth. Examples of debris include non-operational satellites, rocket bodies, and fragments generated from explosions, collisions, or faulty payload assembly.

Loading next visibility...
Identifier
44618, 2018-034K
Orbit
LEO
Last TLE update
13 hours ago
Origin
Manufacturer
Unknown
Mission
Spacecraft
Bus & Motor
Unknown
Mass
Unknown
Launch date (UTC)
2018-04-10 (7 years ago)
Launch vehicle
Unknown
Launch site
Taiyaun Space Center, China (TSC)
Object type
Payload
Rocket body
Debris
Shape & HBR
Unknown
Radar Cross Section
Small (<0.1 m²)

Expand to show TLE details & history

TLE from 13 hours ago
0 CZ-4C DEB
1 44618U 18034K   25183.97440014 -.00000077  00000-0  17857-4 0  9994
2 44618  63.4677 324.9102 0227153 347.2635  12.2708 13.42025445329980
Epoch: 2025-07-02T23:23Z
TLE epoch observation values (Epoch: 2025-07-02T23:23:08.172Z)
Latitude
-0.00007°
Longitude
52.87831°
Altitude
937.653 km
Speed
7.465 km/s
True Right ascension
21h 39m 38s
True Declination
0° 00' 00"
Sunlit
Object was in full shadow at epoch
Visualization orbit readout
Latitude
10.30459°
Longitude
56.72374°
Altitude
947.273 km
Speed
7.456 km/s
Apparent Right ascension
19h 22m 16s
Apparent Declination
-37° 19' 21"
Sunlit
Object is in full shadow
Visualization observer readout
Local Sidereal Time
23:44:05
Azimuth
226.896° WSW
Elevation
-7.797°
Doppler factor
1
Orbital elements
Apogee altitude
1,270.447 km
Perigee altitude
930.685 km
Semi-major axis
7,478.703 km
Eccentricity
0.02272
Inclination
63.4677°
RAAN
324.9102°
Arg. of periapsis
347.2635°
True anomaly
Unknown
Mean anomaly
12.2708°
Eccentric anomaly
Unknown
Mean motion
3.35586 °/min
Orbital period
107.28 mins
BSTAR
0.000017857
Loading maneuver chart data...
Loading SW <> Apogee altitude chart data...
Loading historical data...
Loading historical data...
Loading historical data...
Loading historical data...
Loading historical data...
Loading historical data...
Loading historical data...

CZ-4C DEB Visibility forecast

Observer location: undefined°, undefined°

Span
Click to sort rows by Start time (UTC) header in descending order
Start Az.
Max El. time (UTC)
Max El. Az.
Max El.
End time (UTC)
End Az.
11 mins2025-07-03 12:03:30.822Z238.677° WSW2025-07-03 12:08:30.822Z301.699° NW37.303°2025-07-03 12:14:30.822Z23.218° NE
5 mins2025-07-03 13:59:30.822Z316.265° NNW2025-07-03 14:01:30.822Z335.714° NNW14.512°2025-07-03 14:04:30.822Z3.041° NNE
9 mins2025-07-03 17:46:30.822Z357.5° N2025-07-03 17:50:30.822Z36.059° NE19.388°2025-07-03 17:55:30.822Z77.532° E
13 mins2025-07-03 19:36:30.822Z332.467° NNW2025-07-03 19:42:30.822Z59.362° ENE43.17°2025-07-03 19:49:30.822Z136.317° SSE
10 mins2025-07-03 21:28:30.822Z293.13° NW2025-07-03 21:32:30.822Z254.031° W24.172°2025-07-03 21:38:30.822Z200.215° SSW
6 mins2025-07-04 09:30:30.822Z130.091° SE2025-07-04 09:32:30.822Z108.413° ESE16.372°2025-07-04 09:36:30.822Z69.367° E
11 mins2025-07-04 11:17:30.822Z218.951° SW2025-07-04 11:22:30.822Z294.26° NW44.416°2025-07-04 11:28:30.822Z31.221° NE
|